Date,TemperatureHighF,TemperatureAvgF,TemperatureLowF,DewpointHighF,DewpointAvgF,DewpointLowF,HumidityHigh,HumidityAvg,HumidityLow,PressureMaxIn,PressureMinIn,WindSpeedMaxMPH,WindSpeedAvgMPH,GustSpeedMaxMPH,PrecipitationSumIn
2013-5-1,77.5,67.5,50.2,54.5,48.6,42.0,93,53,32,30.15,30.02,18,4,22,0.00
2013-5-2,77.3,69.5,41.8,45.6,38.3,27.6,86,34,17,30.21,30.02,19,2,21,0.00
2013-5-3,75.7,66.9,40.2,49.8,41.7,10.5,92,43,29,30.10,29.94,22,3,26,0.00
2013-5-4,73.4,58.1,39.3,44.7,40.5,34.7,90,56,29,30.11,29.94,26,2,32,0.00
2013-5-5,75.2,57.1,37.0,47.8,36.6,23.0,96,55,17,30.07,29.89,26,3,27,0.00
2013-5-6,76.2,57.1,33.9,49.9,40.2,30.8,93,58,27,30.01,29.84,19,2,23,0.00
2013-5-7,76.5,61.0,43.1,55.4,48.5,42.0,97,68,33,29.93,29.76,18,2,19,0.00
2013-5-8,69.0,58.5,49.5,59.1,53.4,47.6,95,84,58,29.84,29.72,16,1,20,0.05
2013-5-9,73.0,60.0,47.2,58.9,53.5,44.7,100,81,42,29.82,29.70,30,3,30,0.08
2013-5-10,74.1,57.1,42.5,62.2,53.0,41.4,97,87,62,29.82,29.57,23,2,27,0.81
2013-5-11,59.1,50.9,44.4,57.8,48.3,43.0,96,91,83,29.66,29.50,16,5,21,0.19
2013-5-12,48.1,41.2,33.9,46.4,34.7,29.7,96,78,54,30.00,29.62,32,10,33,0.13
2013-5-13,44.2,35.9,28.2,32.5,29.5,25.8,95,78,57,30.22,29.99,19,4,19,0.01
2013-5-14,51.9,39.3,25.2,42.3,33.5,23.7,95,82,45,30.26,29.92,19,1,20,0.15
2013-5-15,80.6,59.3,42.5,64.6,51.2,41.4,97,78,45,29.92,29.51,32,6,38,0.01
2013-5-16,75.1,60.1,44.6,56.6,46.9,39.6,98,68,35,29.84,29.58,26,5,28,0.00
2013-5-17,73.5,56.3,37.7,50.2,43.4,36.6,97,67,32,30.05,29.83,12,1,16,0.00
2013-5-18,79.5,62.7,51.7,56.7,50.6,44.8,88,67,40,30.05,29.88,12,1,13,0.00
2013-5-19,78.2,67.2,54.8,64.0,59.3,52.3,94,77,58,29.93,29.75,16,2,20,0.00
2013-5-20,85.3,71.1,55.7,67.7,62.8,54.7,98,77,51,29.83,29.59,19,2,23,0.00
2013-5-21,87.0,72.6,58.1,71.0,63.8,57.4,99,77,46,29.67,29.47,27,4,28,0.00
2013-5-22,85.0,71.5,59.0,68.6,63.4,57.9,98,78,49,29.57,29.39,26,4,30,0.13
2013-5-23,72.0,63.4,45.8,65.8,59.8,43.5,96,88,73,29.69,29.45,21,4,21,0.47
2013-5-24,45.6,41.1,38.1,43.3,37.3,34.8,93,86,71,30.24,29.69,23,5,23,0.08
2013-5-25,55.7,44.4,30.6,40.7,36.3,29.6,97,75,50,30.31,30.17,24,6,27,0.00
2013-5-26,61.2,46.8,29.9,41.4,35.1,28.5,97,69,37,30.25,30.17,24,5,26,0.00
2013-5-27,70.5,51.3,30.3,48.2,39.2,29.0,98,69,33,30.27,30.05,15,1,16,0.00
2013-5-28,73.7,59.7,49.0,66.8,57.3,44.5,100,92,76,30.07,29.71,21,1,24,3.81
2013-5-29,81.5,67.9,57.8,70.6,64.4,57.2,99,90,62,29.85,29.75,22,2,24,0.26
2013-5-30,83.4,70.1,58.3,72.4,65.1,57.9,100,86,58,29.94,29.82,14,2,16,0.01
2013-5-31,86.0,71.4,57.3,71.9,63.6,57.0,100,80,49,29.89,29.69,20,3,26,0.00